Flag for Estonia Weather past 2 weeks in Tartu, Estonia

Now
55 °F

Fog.


Feels Like: 55 °F
Forecast: 47 / 65 °F
Wind: 5 mph from East

Location: Tartu/Ulenurme

Current Time: Sep 3, 2015 at 6:17:28 AM

Latest Report: Sep 3, 2015 at 5:50 AM


Visibility: 1 mi

Pressure: 29.83 "Hg

Humidity: 94%

Dew point: 54 °F

Location of TartuLocation

Historic Weather in Tartu — Graph

°F

Tartu temperature yesterday

Maximum temperature yesterday: 59 °F (at 11:50 AM)
Minimum temperature yesterday: 54 °F (at 1:50 AM)
Average temperature yesterday: 56 °F

Past Weeks' High & Low Weather Summary

 TemperatureHumidityPressure
High81 °F (Aug 25, 3:50 PM)100% (Aug 31, 5:50 AM)30.48 "Hg (Aug 31, 5:50 AM)
Low39 °F (Aug 19, 5:50 AM)34% (Aug 22, 4:50 PM)29.68 "Hg (Aug 28, 2:50 PM)
Average61 °F75%30.10 "Hg
* Reported Aug 19 4:50 AM — Sep 3 4:50 AM, Tartu, Weather by CustomWeather, © 2015

Note: Actual official high and low records may vary slightly from our data, if they occured in-between our weather recording intervals... More about our weather records

Advertising

Tartu weather history for previous 24 hours

 ConditionsComfort  
Time TempWeatherWind HumidityBarometerVisibility
4:50 AM
Thu, Sep 3
55 °FFog.6 mph94%29.83 "Hg1 mi
3:50 AM55 °FDrizzle. Low clouds.6 mph94%29.83 "Hg1 mi
2:50 AM55 °FDrizzle. Low clouds.7 mph94%29.83 "Hg2 mi
1:50 AM55 °FLight rain. Low clouds.7 mph94%29.83 "Hg4 mi
12:50 AM55 °FDrizzle. Low clouds.8 mph94%29.83 "Hg4 mi
11:50 PM
Wed, Sep 2
55 °FLight rain. Low clouds.9 mph94%29.83 "Hg2 mi
10:50 PM55 °FRain. Low clouds.10 mph94%29.83 "Hg5 mi
9:50 PM55 °FRain. Low clouds.8 mph94%29.83 "Hg2 mi
8:50 PM55 °FLight rain. Low clouds.8 mph94%29.83 "Hg2 mi
7:50 PM55 °FRain. Low clouds.10 mph94%29.80 "Hg1 mi
6:50 PM57 °FRain. Mostly cloudy.7 mph88%29.80 "Hg4 mi
5:50 PM57 °FLight rain. More clouds than sun.12 mph94%29.80 "HgN/A
4:50 PM59 °FRain. Mostly cloudy.8 mph88%29.80 "Hg4 mi
3:50 PM59 °FOvercast.8 mph82%29.80 "HgN/A
2:50 PM59 °FOvercast.10 mph82%29.80 "HgN/A
1:50 PM59 °FLight rain. Mostly cloudy.10 mph82%29.83 "HgN/A
12:50 PM59 °FScattered clouds.13 mph82%29.80 "HgN/A
11:50 AM59 °FPartly sunny.14 mph77%29.80 "HgN/A
10:50 AM57 °FPartly sunny.14 mph82%29.80 "HgN/A
9:50 AM57 °FBroken clouds.15 mph82%29.80 "HgN/A
8:50 AM55 °FBroken clouds.16 mph88%29.80 "HgN/A
7:50 AM55 °FOvercast.14 mph82%29.80 "HgN/A
6:50 AM54 °FOvercast.13 mph88%29.80 "HgN/A
Weather by CustomWeather, © 2015

See weather overviewHow to use our weather pages